This is the latest recevied weather packets stored in our database for station/object WA4IKQ. If no packets are shown the sender has not sent any weather packets the latest 10 day(s).
| Time | Temp. | Humidity | Pressure | Rain* | Wind** | Luminosity | Snow |
|---|---|---|---|---|---|---|---|
| 1777897117 | 20° C | 77% | 1016.3 hPa | 0 mm | 2.24 m/s, 333° | - | - |
| 1777896893 | 20° C | 77% | 1016.3 hPa | 0 mm | 2.24 m/s, 333° | - | - |
| 1777896867 | 19.44° C | 78% | 1016.3 hPa | 0 mm | 1.34 m/s, 359° | - | - |
| 1777896593 | 19.44° C | 78% | 1016.3 hPa | 0 mm | 1.34 m/s, 359° | - | - |
| 1777896314 | 19.44° C | 80% | 1016.3 hPa | 0 mm | 0.89 m/s, 359° | - | - |
| 1777896202 | 18.89° C | 81% | 1016.3 hPa | 0 mm | 0.89 m/s, 343° | - | - |
| 1777896100 | 18.89° C | 82% | 1016.2 hPa | 0 mm | 0 m/s | - | - |
| 1777895995 | 18.89° C | 81% | 1016.3 hPa | 0 mm | 0.89 m/s, 343° | - | - |
| 1777895693 | 18.89° C | 82% | 1016.2 hPa | 0 mm | 0 m/s | - | - |
| 1777895617 | 18.89° C | 83% | 1016.2 hPa | 0 mm | 0.45 m/s, 307° | - | - |
| 1777895394 | 18.89° C | 83% | 1016.2 hPa | 0 mm | 0.45 m/s, 307° | - | - |
| 1777894473 | 18.33° C | 85% | 1016.1 hPa | 0 mm | 0.89 m/s, 330° | - | - |
| 1777893894 | 18.33° C | 85% | 1016.1 hPa | 0 mm | 0.89 m/s, 330° | - | - |
| 1777893593 | 17.78° C | 86% | 1016 hPa | 0 mm | 0 m/s | - | - |
| 1777893318 | 17.78° C | 86% | 1016 hPa | 0 mm | 0.89 m/s, 333° | - | - |
| 1777893293 | 17.78° C | 86% | 1016 hPa | 0 mm | 0.89 m/s, 342° | - | - |
| 1777892993 | 17.78° C | 86% | 1016 hPa | 0 mm | 0.89 m/s, 333° | - | - |
| 1777892701 | 17.78° C | 86% | 1016 hPa | 0 mm | 1.34 m/s, 295° | - | - |
| 1777892391 | 17.78° C | 86% | 1015.9 hPa | 0 mm | 0 m/s | - | - |
| 1777892091 | 17.78° C | 85% | 1015.8 hPa | 0 mm | 0 m/s | - | - |
| 1777891792 | 17.78° C | 85% | 1015.7 hPa | 0 mm | 0 m/s | - | - |
| 1777891706 | 17.78° C | 84% | 1015.4 hPa | 0 mm | 0 m/s | - | - |
| 1777891194 | 17.78° C | 85% | 1015.5 hPa | 0 mm | 0.89 m/s, 316° | - | - |
| 1777890893 | 17.78° C | 84% | 1015.4 hPa | 0 mm | 0 m/s | - | - |
| 1777890590 | 17.78° C | 84% | 1015.5 hPa | 0 mm | 0.45 m/s, 308° | - | - |
* Rain latest hour (hover to see other rain measurements)
** Current wind speed in m/s (hover to see current wind gust speed)